Wind_Speed
27 27 28 28 29 29 29 29 29 30 30 30 30 31 31 30 30 31 30 30 30 30 31 31 31 31 32 32 32 32 33 33 33 33 33 33 33 35 36 36 35 35 34
26 26 26 26 27 27 27 27 28 28 28 29 28 28 29 29 29 30 30 30 30 30 29 29 30 31 32 32 32 32 32 32 32 32 33 33 34 35 35 34 34 34 33
25 25 25 25 25 25 25 26 26 27 26 26 26 25 26 27 27 27 28 28 28 28 28 27 27 28 29 29 30 30 30 31 31 32 32 33 33 33 33 33 33 34 33
24 25 25 25 25 25 25 25 25 24 24 24 24 24 24 24 25 25 25 25 26 26 25 26 26 27 27 28 28 29 30 30 30 30 30 30 31 32 33 33 33 33 33
23 24 24 24 24 23 23 23 23 22 22 22 22 23 23 23 23 23 23 23 23 23 23 23 24 25 26 26 27 28 28 28 28 28 29 30 30 30 30 31 31 31 31
22 22 22 21 21 21 21 21 21 20 21 21 21 21 21 21 21 21 21 20 20 20 20 21 21 22 23 24 25 26 26 26 26 27 27 27 28 29 28 28 28 28 28
19 19 19 19 18 18 18 17 17 17 17 17 17 17 17 18 17 17 17 18 18 17 18 19 20 21 21 22 22 22 22 23 23 24 25 25 26 26 26 26 26 25 26
18 18 18 17 17 16 15 14 15 15 14 14 14 14 14 14 14 15 15 15 16 16 16 16 17 17 18 19 19 20 21 21 21 22 23 24 24 23 23 23 24 24 24
16 16 17 16 14 12 11 11 11 11 11 11 11 11 11 11 12 12 13 13 14 14 14 14 14 15 15 16 16 17 17 18 19 20 20 21 21 21 21 21 21 20 20
14 15 15 13 12 10 10 9 9 8 7 7 7 8 8 8 9 9 10 10 10 10 10 10 11 11 12 13 13 13 13 14 15 16 16 16 16 16 16 16 16 16 16
13 13 12 10 9 9 8 7 7 6 5 5 5 6 5 5 5 5 5 6 7 7 7 7 8 8 8 8 8 9 9 9 9 10 10 11 11 11 12 12 13 14 14
11 10 9 8 7 6 6 5 4 4 4 4 4 3 3 3 2 2 2 2 2 2 3 3 3 4 4 5 5 6 6 7 7 7 8 8 9 10 10 11 12 12 12
9 8 8 7 6 5 4 3 3 3 3 4 4 4 4 4 5 5 5 5 4 4 4 4 4 4 4 3 4 4 5 5 5 5 6 6 7 8 8 9 10 10 11
7 8 8 7 7 6 4 4 3 4 5 6 6 7 7 7 7 7 7 7 7 7 7 7 6 6 5 5 4 5 5 5 5 5 6 6 6 7 7 8 9 9 10
7 7 7 7 7 7 7 6 6 6 6 7 8 8 9 9 9 9 9 9 9 9 9 9 8 8 7 7 7 6 6 6 6 5 5 6 6 7 8 8 8 9 9
7 8 8 8 8 8 9 8 8 8 8 8 9 10 10 10 10 11 11 11 11 10 10 10 10 10 9 9 9 9 8 8 8 7 7 7 8 8 8 8 8 8 8
8 9 9 10 10 10 10 10 10 10 10 10 10 11 12 12 12 12 12 12 12 12 12 12 12 12 12 12 12 11 11 10 9 9 9 9 9 9 9 9 9 9 9
9 10 11 12 12 12 12 11 11 11 12 12 12 12 13 13 13 14 13 13 13 13 13 13 14 14 14 13 13 12 12 12 11 11 11 11 11 11 10 10 10 10 10
11 12 12 12 13 13 14 13 13 13 13 13 14 14 14 14 14 14 14 14 14 14 14 15 15 15 15 15 14 14 14 14 13 13 13 13 12 12 12 12 11 11 11
12 13 13 13 14 15 15 15 15 15 15 15 15 15 15 14 14 14 14 15 15 15 15 15 16 16 16 15 15 15 14 14 14 14 14 14 13 13 13 13 13 13 13
12 13 14 14 15 15 15 15 15 15 15 15 15 15 15 15 15 15 15 16 16 16 16 16 16 16 16 16 16 15 15 15 15 14 14 14 14 14 14 14 14 14 14
13 14 14 15 15 15 15 15 15 15 15 15 15 15 15 15 16 16 16 16 16 16 16 16 16 16 16 16 16 16 16 15 15 15 15 15 15 15 15 16 16 16 17
13 13 14 14 15 15 15 15 15 16 16 16 16 16 16 16 16 16 16 16 16 16 16 16 16 16 16 16 16 16 16 16 16 17 17 17 17 17 17 17 18 18 19
12 13 13 13 14 14 14 15 15 15 15 15 15 15 15 15 15 15 15 15 16 16 16 16 16 16 16 16 16 16 16 17 17 17 17 17 18 18 19 19 20 20 21
11 11 12 12 13 13 13 13 14 14 14 14 14 14 14 14 14 14 14 15 15 15 15 15 15 16 16 16 17 17 18 18 18 19 19 19 19 20 21 22 22 23 24
10 10 10 11 11 11 11 12 12 12 12 13 13 13 13 13 13 13 13 13 14 14 14 15 15 16 16 17 18 18 19 19 20 20 21 21 22 22 23 24 25 26 26
Wind_Direction
291 289 287 287 287 286 285 283 281 279 278 277 276 275 274 272 270 269 269 268 269 269 266 263 262 262 262 264 265 263 263 264 265 266 269 270 270 270 272 271 272 276 277
293 292 291 291 290 288 286 284 283 282 280 278 276 275 275 274 271 269 268 268 268 268 268 266 264 263 263 266 267 266 265 267 268 269 270 269 269 270 272 272 275 279 281
296 295 294 293 291 290 288 286 286 284 282 279 278 277 276 275 274 272 270 268 267 267 267 266 267 265 265 266 266 267 268 268 268 268 269 269 270 270 272 275 277 278 280
298 297 296 294 292 290 288 287 286 284 282 279 277 277 277 275 274 274 272 268 267 267 266 265 265 265 265 266 267 268 268 267 268 268 269 270 272 273 274 274 276 278 279
299 298 297 295 294 292 290 288 286 284 282 280 278 277 277 276 275 273 270 268 267 266 266 265 265 265 264 265 266 267 268 268 267 269 271 273 274 275 275 275 276 278 280
298 298 298 299 298 295 293 289 286 284 282 281 281 280 278 277 275 272 270 269 267 265 267 267 267 268 267 267 267 268 268 268 271 271 273 276 275 275 274 276 278 279 282
301 302 303 302 302 301 298 292 287 286 284 284 283 281 279 277 274 271 270 268 268 265 266 268 267 266 266 266 266 266 267 269 272 273 274 276 276 275 276 278 281 282 283
304 304 305 305 305 304 300 295 292 291 289 286 286 285 282 279 275 268 265 267 265 266 271 272 269 266 267 268 269 269 270 271 273 274 275 276 277 278 280 283 284 283 284
309 309 309 307 309 308 306 304 299 295 292 288 289 288 285 281 280 274 269 268 269 272 274 277 277 275 274 273 274 275 274 274 275 277 280 279 280 280 280 281 283 284 283
314 314 313 308 307 306 307 309 304 299 296 295 296 298 293 289 284 281 273 271 274 276 278 282 281 280 279 277 278 281 280 280 281 280 280 280 280 280 280 281 283 284 284
321 321 320 315 311 308 308 311 309 308 310 308 304 307 309 309 298 293 283 278 279 278 279 284 285 283 283 283 285 285 285 286 286 289 288 285 285 285 286 285 284 286 287
326 328 331 329 325 318 317 318 317 320 327 330 330 345 355 347 346 349 3 1 346 326 319 313 308 309 307 307 306 304 301 299 300 298 296 294 295 296 295 293 291 291 291
340 344 349 351 346 343 346 352 5 19 30 40 41 48 45 43 45 51 47 40 37 37 35 30 21 9 357 345 337 333 331 327 325 322 319 316 316 313 309 305 300 297 296
0 9 13 15 20 24 35 53 62 64 65 60 66 67 65 60 55 53 53 56 57 53 47 41 37 33 27 21 13 6 1 358 355 350 347 339 335 332 329 324 317 312 309
24 27 27 33 41 52 63 72 72 71 73 72 72 69 67 67 64 65 66 63 59 57 53 47 42 39 37 34 31 27 23 18 15 11 6 2 356 349 342 336 331 326 322
40 43 47 53 64 69 72 74 73 75 79 79 77 76 73 69 68 67 66 64 63 60 57 52 49 49 48 45 43 41 39 37 34 30 22 16 10 4 360 355 348 343 338
55 59 62 67 72 74 75 76 77 78 79 79 78 76 73 70 70 71 69 66 64 60 57 54 54 54 52 51 50 48 47 44 41 36 29 21 14 8 4 1 358 354 349
71 73 72 73 75 76 77 78 78 78 78 80 79 79 77 75 73 70 68 65 62 60 59 57 55 54 53 53 52 49 45 42 39 35 30 25 20 16 13 10 6 1 357
79 79 77 76 77 77 79 80 80 81 82 82 82 80 77 75 73 70 68 66 64 62 60 58 57 56 55 55 53 51 48 44 42 38 33 28 25 22 19 15 10 4 358
81 80 80 78 79 80 82 81 81 80 81 82 81 78 76 73 71 70 68 66 64 62 60 59 58 57 55 53 51 48 45 41 38 34 31 28 25 21 16 11 7 3 359
81 82 83 82 82 83 82 81 80 80 81 80 80 79 77 74 72 70 68 67 64 63 61 60 58 55 52 49 45 41 36 32 28 26 24 20 16 12 8 4 1 357 353
83 84 84 84 84 84 83 82 81 80 80 80 79 78 76 74 72 69 68 66 64 62 60 57 53 50 46 42 38 34 31 28 25 21 16 12 8 5 3 360 357 353 350
85 85 86 86 86 85 84 83 82 81 81 80 78 77 76 73 71 68 66 63 60 57 54 51 47 43 38 34 31 29 27 25 21 17 13 8 4 360 356 354 351 349 347
87 87 88 89 88 87 85 84 82 80 79 78 77 75 73 70 67 64 61 57 55 52 49 46 41 38 34 31 28 25 21 17 13 9 6 2 360 358 355 351 348 346 343
92 91 90 89 88 86 85 83 80 78 76 75 73 71 69 66 63 59 56 53 50 46 43 39 35 31 27 23 20 16 13 11 9 6 2 358 355 352 349 347 345 342 339
97 95 92 89 88 86 83 80 78 76 74 72 70 67 64 60 57 54 50 46 42 38 34 31 26 22 18 16 13 10 7 5 2 360 357 354 351 348 346 343 341 338 335
Height
5770 5768 5766 5764 5762 5760 5759 5758 5758 5757 5757 5757 5756 5757 5757 5757 5758 5759 5760 5761 5761 5762 5763 5764 5766 5767 5768 5770 5771 5772 5774 5775 5776 5777 5778 5779 5780 5780 5780 5781 5781 5781 5781
5763 5761 5759 5757 5755 5753 5752 5751 5750 5750 5749 5749 5749 5749 5749 5749 5750 5750 5751 5752 5753 5754 5755 5756 5757 5759 5761 5762 5764 5765 5766 5767 5768 5769 5770 5771 5771 5771 5772 5772 5772 5772 5772
5757 5755 5752 5750 5748 5747 5745 5744 5743 5743 5742 5742 5742 5742 5742 5742 5742 5743 5743 5744 5745 5746 5748 5749 5750 5752 5753 5755 5756 5757 5758 5759 5760 5761 5761 5762 5762 5763 5763 5764 5764 5764 5763
5751 5748 5746 5744 5742 5740 5739 5738 5737 5736 5736 5735 5735 5735 5735 5735 5736 5736 5737 5737 5738 5739 5740 5742 5743 5745 5746 5748 5749 5750 5751 5752 5753 5753 5754 5754 5755 5755 5755 5755 5755 5755 5755
5745 5742 5740 5738 5736 5734 5733 5731 5731 5730 5730 5729 5729 5729 5729 5729 5729 5730 5730 5731 5732 5733 5734 5735 5736 5738 5739 5741 5742 5743 5744 5744 5745 5746 5746 5747 5747 5747 5747 5747 5747 5747 5747
5740 5737 5735 5732 5730 5728 5727 5725 5725 5724 5724 5724 5723 5723 5723 5723 5723 5724 5724 5725 5726 5727 5728 5729 5730 5731 5733 5734 5735 5736 5737 5737 5738 5739 5739 5739 5740 5740 5739 5739 5739 5739 5738
5735 5733 5730 5728 5726 5724 5722 5720 5720 5720 5719 5719 5718 5718 5718 5718 5718 5719 5719 5720 5721 5722 5723 5724 5725 5726 5727 5728 5728 5729 5730 5731 5732 5732 5732 5733 5733 5733 5732 5732 5732 5731 5731
5731 5728 5726 5724 5722 5720 5718 5717 5716 5715 5715 5715 5714 5714 5714 5714 5714 5714 5715 5716 5716 5717 5718 5719 5720 5721 5721 5722 5723 5723 5724 5725 5725 5726 5726 5726 5726 5726 5726 5726 5725 5725 5724
5727 5725 5722 5720 5718 5717 5716 5714 5713 5713 5712 5712 5711 5711 5711 5711 5711 5711 5712 5713 5713 5714 5715 5715 5716 5716 5717 5717 5718 5718 5719 5719 5719 5719 5720 5720 5720 5720 5720 5719 5719 5718 5718
5724 5721 5719 5717 5716 5715 5714 5713 5712 5711 5710 5710 5709 5709 5709 5709 5709 5709 5709 5710 5711 5711 5712 5712 5712 5713 5713 5713 5714 5714 5714 5714 5715 5715 5715 5715 5715 5715 5714 5714 5713 5713 5712
5722 5719 5717 5715 5714 5713 5712 5711 5711 5710 5709 5709 5708 5708 5708 5708 5708 5708 5708 5708 5709 5709 5710 5710 5710 5710 5711 5711 5711 5711 5711 5711 5711 5711 5711 5711 5711 5711 5710 5710 5709 5709 5708
5720 5718 5716 5714 5713 5712 5711 5711 5710 5710 5709 5709 5708 5708 5708 5708 5708 5708 5708 5708 5708 5708 5709 5709 5709 5709 5709 5709 5709 5709 5709 5709 5709 5709 5708 5708 5708 5708 5707 5706 5706 5705 5704
5719 5717 5715 5714 5713 5712 5711 5711 5711 5710 5710 5710 5709 5710 5709 5709 5709 5709 5709 5709 5709 5709 5709 5709 5709 5708 5708 5708 5708 5708 5708 5707 5707 5707 5707 5706 5706 5705 5704 5703 5703 5702 5701
5719 5717 5716 5715 5714 5713 5712 5712 5712 5712 5712 5711 5711 5711 5711 5711 5711 5711 5711 5711 5710 5710 5710 5710 5709 5709 5708 5708 5708 5707 5707 5707 5706 5706 5706 5705 5704 5704 5703 5702 5701 5700 5699
5720 5718 5717 5716 5715 5715 5714 5714 5713 5713 5713 5714 5714 5714 5714 5714 5714 5713 5713 5713 5712 5712 5712 5711 5711 5710 5709 5709 5708 5708 5707 5706 5706 5706 5705 5705 5704 5703 5702 5700 5699 5698 5697
5722 5720 5719 5718 5718 5717 5716 5716 5716 5716 5716 5716 5716 5716 5716 5716 5716 5716 5716 5715 5715 5714 5714 5713 5712 5711 5711 5710 5709 5709 5708 5707 5706 5706 5705 5704 5704 5702 5701 5700 5699 5698 5696
5724 5723 5722 5721 5720 5720 5719 5719 5719 5719 5719 5719 5719 5719 5719 5719 5719 5719 5719 5718 5718 5717 5717 5716 5715 5714 5713 5712 5711 5711 5710 5709 5708 5707 5706 5705 5704 5703 5702 5700 5699 5697 5696
5726 5726 5725 5724 5724 5723 5723 5723 5723 5723 5723 5723 5723 5723 5723 5723 5723 5722 5722 5721 5721 5720 5720 5719 5718 5717 5716 5715 5714 5713 5712 5711 5710 5709 5707 5706 5705 5703 5702 5700 5699 5697 5696
5730 5729 5729 5729 5728 5727 5727 5727 5727 5727 5727 5727 5727 5727 5727 5727 5726 5726 5725 5725 5724 5724 5723 5722 5721 5720 5719 5718 5717 5716 5714 5713 5712 5710 5709 5707 5706 5704 5703 5701 5699 5697 5696
5734 5733 5733 5733 5732 5732 5732 5731 5731 5731 5731 5731 5731 5731 5731 5730 5730 5730 5729 5728 5728 5727 5726 5725 5724 5723 5722 5721 5720 5719 5717 5716 5714 5712 5711 5709 5707 5705 5704 5702 5700 5698 5696
5738 5737 5737 5737 5737 5736 5736 5736 5735 5735 5735 5735 5735 5735 5735 5734 5734 5734 5733 5732 5731 5731 5730 5729 5728 5727 5726 5724 5723 5721 5720 5718 5716 5714 5713 5711 5709 5706 5704 5702 5700 5697 5695
5742 5742 5741 5741 5741 5741 5741 5741 5740 5740 5740 5739 5739 5739 5739 5738 5738 5738 5737 5736 5736 5735 5734 5733 5731 5730 5729 5727 5726 5724 5722 5720 5718 5716 5714 5712 5709 5707 5704 5702 5699 5697 5694
5747 5746 5746 5746 5746 5746 5745 5745 5745 5745 5744 5744 5744 5743 5743 5743 5742 5742 5741 5740 5740 5738 5737 5736 5735 5733 5732 5730 5728 5726 5724 5722 5720 5717 5715 5712 5710 5707 5704 5701 5698 5695 5692
5751 5751 5750 5750 5750 5750 5750 5750 5749 5749 5749 5748 5748 5748 5747 5747 5746 5746 5745 5744 5743 5742 5741 5739 5738 5736 5734 5732 5730 5728 5725 5723 5721 5718 5715 5712 5709 5706 5703 5700 5697 5693 5690
5754 5754 5754 5754 5754 5754 5754 5754 5754 5753 5753 5753 5752 5752 5751 5751 5750 5749 5748 5747 5746 5745 5744 5742 5740 5738 5736 5734 5732 5729 5727 5724 5721 5718 5715 5712 5709 5705 5702 5698 5695 5691 5687
5758 5758 5758 5758 5758 5758 5758 5758 5757 5757 5757 5756 5756 5756 5755 5754 5753 5752 5751 5750 5749 5747 5746 5744 5742 5740 5738 5735 5733 5730 5727 5724 5721 5718 5714 5711 5707 5704 5700 5696 5692 5687 5683